Regional Weather Roundup
Issued by NWS

Home | Current Version | Previous Version | Graphics & Text | Print | Product List | Glossary On
Versions: 1 2 3 4 5 6 7 8 9 10 11 12 13 14 15 16 17 18 19 20 21 22 23 24 25 26 27 28 29 30 31 32 33 34 35 36 37 38 39 40 41 42 43 44 45 46 47 48 49 50
000
ASUS43 KMKX 300900
RWRWI

WISCONSIN REGIONAL WEATHER ROUNDUP
NATIONAL WEATHER SERVICE MILWAUKEE/SULLIVAN WI
400 AM CDT SAT APR 30 2016

NOTE: "FAIR" INDICATES FEW OR NO CLOUDS BELOW 12,000 FEET WITH NO
SIGNIFICANT WEATHER AND/OR OBSTRUCTIONS TO VISIBILITY.

WIZ001-002-006>008-014>016-023>028-301000-
NORTHWEST WISCONSIN

CITY           SKY/WX    TMP DP  RH WIND       PRES   REMARKS
SUPERIOR ARPT  CLEAR     34  32  92 NE6       30.24S WCI  29
ASHLAND        PTCLDY    36  33  89 NE12      30.22F WCI  28
HAYWARD        CLOUDY    35  29  78 NE6       30.17F WCI  30
SIREN          CLOUDY    36  30  77 NE8       30.15F WCI  30
CUMBERLAND     CLOUDY    37  30  75 NE8       30.12F WCI  31
RICE LAKE      CLOUDY    40  31  70 NE7       30.14F
CHETEK         CLOUDY    41  32  69 E6        30.12F
LADYSMITH      CLOUDY    39  32  75 NE6       30.15F HAZE    WCI  35
EAU CLAIRE     NOT AVBL
MENOMONIE      CLOUDY    40  32  72 CALM      30.11S
NEW RICHMOND   CLOUDY    40  32  74 NE5       30.12R
OSCEOLA        CLOUDY    40  32  72 CALM      30.15S
$$

WIZ003>005-009-010-017-018-301000-
NORTH CENTRAL WISCONSIN

CITY           SKY/WX    TMP DP  RH WIND       PRES   REMARKS
MANITOWISH WTR CLOUDY    37  31  78 NE6       30.18F WCI  33
ARBOR VITAE    PTCLDY    39  32  75 NE3       30.17F
WOODRUFF       PTCLDY    39  32  75 NE3       30.17F
RHINELANDER    CLOUDY    36  28  73 NE5       30.16F WCI  32
EAGLE RIVER    PTCLDY    33  28  81 CALM      30.18S
LAND O LAKES   CLOUDY    37  29  74 CALM      30.20S
PHILLIPS       CLOUDY    35  30  82 NE3       30.15S
TOMAHAWK       CLOUDY    34  29  82 NE3       30.16F
MEDFORD        CLOUDY    37  33  85 NE6       30.12F WCI  32
MERRILL        CLOUDY    33  30  89 NE6       30.15S WCI  28
$$

WIZ029-030-035-036-043>047-301000-
CENTRAL WISCONSIN

CITY           SKY/WX    TMP DP  RH WIND       PRES   REMARKS
WAUSAU         CLOUDY    40  28  62 SE3       30.12F
MOSINEE        CLOUDY    37  30  75 NE5       30.14S WCI  34
MARSHFIELD     CLOUDY    39  31  72 E7        30.11F WCI  34
STEVENS POINT  CLOUDY    33  31  92 CALM      30.14S
WAUPACA        MOCLDY    38  33  84 N3        30.15R
WAUTOMA        PTCLDY    34  31  88 N3        30.11F
WISC RAPIDS    CLOUDY    39  31  72 CALM      30.13F
CAMP DOUGLAS   NOT AVBL
$$

WIZ011>013-019>022-031-037>040-048>050-301000-
NORTHEAST WISCONSIN

CITY           SKY/WX    TMP DP  RH WIND       PRES   REMARKS
ANTIGO         CLOUDY    33  28  82 CALM      30.15F
SHAWANO        CLOUDY    41  33  72 NE5       30.15F
OCONTO         CLEAR     39  34  81 NE7       30.15F WCI  34
STURGEON BAY   CLEAR     41  30  65 NE9       30.17F
GREEN BAY      MOCLDY    42  37  82 NE10      30.14F
MANITOWOC      NOT AVBL
APPLETON       CLOUDY    37  28  70 CALM      30.12S
CLINTONVILLE   CLOUDY    37  30  75 CALM      30.14F
OSHKOSH        CLOUDY    38  31  76 NE8       30.12F WCI  32
$$

WIZ032>034-041-042-053>061-301000-
SOUTHWEST WISCONSIN

CITY           SKY/WX    TMP DP  RH WIND       PRES   REMARKS
LA CROSSE      CLOUDY    41  37  86 S3        30.09F
SPARTA         CLOUDY    32  32 100 CALM      30.10F
VIROQUA        CLOUDY    40  36  86 E6        30.07R
BOSCOBEL       CLOUDY    44  38  79 E5        30.08F
PRAIRIE DU CHI CLOUDY    43  37  78 E8        30.06R
PLATTEVILLE    CLOUDY    41  39  93 E8        30.06R
$$

WIZ056-057-062-063-064-067-068-301000-
SOUTH CENTRAL WISCONSIN

CITY           SKY/WX    TMP DP  RH WIND       PRES   REMARKS
REEDSBURG      CLOUDY    42  37  84 NE6       30.08F
BARABOO/DELLS  CLOUDY    42  34  75 E6        30.09F
LONE ROCK      NOT AVBL
MINERAL POINT  CLOUDY    43  39  87 E8        30.06S
MADISON        CLOUDY    43  34  70 E8        30.10R
MIDDLETON      CLOUDY    44  38  80 E5        30.08F
WATERTOWN      MOCLDY    39  30  71 NE3       30.08F
MONROE         CLOUDY    41  37  87 NE7       30.07R
JANESVILLE     CLOUDY    43  37  81 E8        30.07R
$$

WIZ051-052-058>065-066-070>072-301000-
SOUTHEAST WISCONSIN

CITY           SKY/WX    TMP DP  RH WIND       PRES   REMARKS
MILWAUKEE      CLOUDY    41  35  79 NE6       30.09F
WAUKESHA       CLOUDY    37  30  75 NE5       30.09F WCI  34
MILWAUKEE/TIMM PTCLDY    37  30  75 NE3       30.10F
RACINE         PTCLDY    45  37  73 E10       30.11F
BURLINGTON     PTCLDY    41  34  75 NE8       30.09R
KENOSHA        CLOUDY    44  37  76 E9        30.08F
FOND DU LAC    CLOUDY    34  29  82 N6        30.11F WCI  29
SHEBOYGAN      CLOUDY    34  27  75 N5        30.11F WCI  30
WEST BEND      CLOUDY    32  32 100 CALM      30.09F
JUNEAU         CLOUDY    39  30  70 N5        30.10F
$$

LSZ147-162-301000-
LAKE SUPERIOR

STATION/POSITION TIME  TEMP    WIND        PRES    WAVE
                       AIR SEA DIR/SP/G            HT/PER
                 (UTC) (F)     (DEG/KT/KT) (MB)    (FT/S)
W MID LAKE BUOY  0750   38 36   40/ 10/ 12 1025.3R   1/ 2
DEVILS ISLAND    0800   40      70/ 17/ 19 1024.7S
SAXON HARBOR     0800   31     190/  2/  3 1023.0F
$$

LMZ867-665-643>646-301000-
LAKE MICHIGAN

STATION/POSITION TIME  TEMP    WIND        PRES    WAVE
                       AIR SEA DIR/SP/G            HT/PER
                 (UTC) (F)     (DEG/KT/KT) (MB)    (FT/S)
CHAMBERS ISLAND  0800   40      10/  7/  9 1022.7R
N MID LAKE BUOY  0750   40 38   20/ 10/ 12 1022.4R   1
NORTHPORT PIER   0800   40     330/  1/  9 1022.4R
ALGOMA LAKESHORE 0800           20/  7/  9   N/A
KEWAUNEE LAKESHO 0800   45      20/ 10/ 13 1020.3S
SHEBOYGAN LAKESH 0800   43     320/  2/  3 1021.4F
PORT WASHINGTON  0840   41      30/  6/  9 1020.0F
S MID LAKE BUOY  0750   42 40   60/ 10/ 12 1019.5F   1
KENOSHA   LAKESH 0800   43      60/ 15/ 16 1018.6F
$$

TC  - TEMPERATURE IN CELSIUS
VSB - VISIBILITY IN STATUTE MILES
WCI - WIND CHILL INDEX
HX  - HEAT INDEX





USA.gov is the U.S. government's official web portal to all federal, state and local government web resources and services.